• In Hungary
  • List of Countries
  • For 7 days
  • Water Temperature
  • Satellite Maps
  • Weather Map
  • News
  • Weather Widgets
  • user-avatar
    Login

    Hourly Weather Uz

    Today, 22 October, Monday

    Time Temperature Precipitation Wind Pressure Humidity
    00:00 +15°C° 0 mm 2 mps 702 mmHg 31%
    01:00 +15°C° 0 mm 2 mps 702 mmHg 30%
    02:00 +15°C° 0 mm 2 mps 702 mmHg 29%
    03:00 +14°C° 0 mm 2 mps 701 mmHg 29%
    04:00 +14°C° 0 mm 2 mps 701 mmHg 29%
    05:00 +15°C° 0 mm 2 mps 702 mmHg 29%
    06:00 +15°C° 0 mm 2 mps 702 mmHg 29%
    07:00 +16°C° 0 mm 2 mps 702 mmHg 29%
    08:00 +17°C° 0 mm 2 mps 702 mmHg 26%
    09:00 +20°C° 0 mm 1 mps 703 mmHg 24%
    10:00 +22°C° 0 mm 1 mps 703 mmHg 21%
    11:00 +23°C° 0 mm 1 mps 703 mmHg 20%
    12:00 +23°C° 0 mm 1 mps 702 mmHg 19%
    13:00 +24°C° 0 mm 2 mps 702 mmHg 18%
    14:00 +23°C° 0 mm 1 mps 702 mmHg 20%
    15:00 +22°C° 0 mm 1 mps 702 mmHg 22%
    16:00 +22°C° 0 mm 1 mps 701 mmHg 24%
    17:00 +20°C° 0 mm 1 mps 701 mmHg 26%
    18:00 +19°C° 0 mm 1 mps 701 mmHg 27%
    19:00 +17°C° 0 mm 2 mps 701 mmHg 29%
    20:00 +16°C° 0 mm 2 mps 701 mmHg 29%
    21:00 +16°C° 0 mm 2 mps 701 mmHg 29%
    22:00 +16°C° 0 mm 2 mps 701 mmHg 29%
    23:00 +15°C° 0 mm 2 mps 701 mmHg 29%

    Tomorrow, 23 October, Tuesday

    Time Temperature Precipitation Wind Pressure Humidity
    00:00 +15°C° 0 mm 2 mps 701 mmHg 29%
    01:00 +15°C° 0 mm 2 mps 701 mmHg 29%
    02:00 +15°C° 0 mm 2 mps 701 mmHg 29%
    03:00 +14°C° 0 mm 2 mps 701 mmHg 29%
    04:00 +14°C° 0 mm 2 mps 701 mmHg 29%
    05:00 +15°C° 0 mm 2 mps 701 mmHg 28%
    06:00 +15°C° 0 mm 2 mps 701 mmHg 28%
    07:00 +16°C° 0 mm 2 mps 702 mmHg 28%
    08:00 +17°C° 0 mm 2 mps 702 mmHg 25%
    09:00 +20°C° 0 mm 1 mps 702 mmHg 22%
    10:00 +22°C° 0 mm 1 mps 703 mmHg 19%
    11:00 +23°C° 0 mm 1 mps 702 mmHg 18%
    12:00 +23°C° 0 mm 1 mps 702 mmHg 18%
    13:00 +23°C° 0 mm 1 mps 702 mmHg 17%
    14:00 +23°C° 0 mm 1 mps 702 mmHg 19%
    15:00 +22°C° 0 mm 1 mps 701 mmHg 21%
    16:00 +22°C° 0 mm 1 mps 701 mmHg 24%
    17:00 +20°C° 0 mm 1 mps 701 mmHg 25%
    18:00 +18°C° 0 mm 2 mps 701 mmHg 26%
    19:00 +17°C° 0 mm 2 mps 701 mmHg 27%
    20:00 +17°C° 0 mm 2 mps 701 mmHg 27%
    21:00 +17°C° 0 mm 2 mps 701 mmHg 28%
    22:00 +17°C° 0 mm 2 mps 701 mmHg 28%
    23:00 +17°C° 0 mm 2 mps 701 mmHg 28%

    Day after tomorrow, 24 October, Wednesday

    Time Temperature Precipitation Wind Pressure Humidity
    00:00 +17°C° 0 mm 2 mps 701 mmHg 28%
    01:00 +16°C° 0 mm 2 mps 700 mmHg 28%
    02:00 +16°C° 0 mm 2 mps 700 mmHg 28%
    03:00 +16°C° 0 mm 2 mps 700 mmHg 28%
    04:00 +16°C° 0 mm 2 mps 700 mmHg 27%
    05:00 +16°C° 0 mm 2 mps 700 mmHg 27%
    06:00 +17°C° 0 mm 2 mps 701 mmHg 27%
    07:00 +18°C° 0 mm 1 mps 701 mmHg 26%
    08:00 +18°C° 0 mm 2 mps 701 mmHg 25%
    09:00 +20°C° 0 mm 2 mps 701 mmHg 23%
    10:00 +21°C° 0 mm 2 mps 702 mmHg 21%
    11:00 +22°C° 0 mm 1 mps 701 mmHg 21%
    12:00 +23°C° 0 mm 1 mps 701 mmHg 21%
    13:00 +23°C° 0 mm 1 mps 701 mmHg 21%
    14:00 +23°C° 0 mm 1 mps 700 mmHg 22%
    15:00 +23°C° 0 mm 1 mps 700 mmHg 24%
    16:00 +22°C° 0 mm 1 mps 700 mmHg 26%
    17:00 +21°C° 0 mm 1 mps 700 mmHg 27%
    18:00 +19°C° 0 mm 2 mps 700 mmHg 28%
    19:00 +18°C° 0 mm 2 mps 700 mmHg 29%
    20:00 +18°C° 0 mm 2 mps 700 mmHg 29%
    21:00 +17°C° 0 mm 2 mps 700 mmHg 30%
    22:00 +17°C° 0 mm 2 mps 700 mmHg 31%
    23:00 +17°C° 0 mm 2 mps 700 mmHg 31%

    25 October, Thursday

    Time Temperature Precipitation Wind Pressure Humidity
    00:00 +17°C° 0 mm 2 mps 700 mmHg 30%
    01:00 +17°C° 0 mm 3 mps 700 mmHg 30%
    02:00 +16°C° 0 mm 3 mps 700 mmHg 30%
    03:00 +16°C° 0 mm 3 mps 700 mmHg 29%
    04:00 +16°C° 0 mm 3 mps 700 mmHg 29%
    05:00 +17°C° 0 mm 3 mps 700 mmHg 28%
    06:00 +17°C° 0 mm 3 mps 700 mmHg 28%
    07:00 +17°C° 0 mm 3 mps 700 mmHg 28%
    08:00 +19°C° 0 mm 2 mps 701 mmHg 24%
    09:00 +23°C° 0 mm 2 mps 701 mmHg 21%
    10:00 +25°C° 0 mm 2 mps 701 mmHg 18%
    11:00 +25°C° 0 mm 2 mps 701 mmHg 17%
    12:00 +26°C° 0 mm 2 mps 700 mmHg 17%
    13:00 +26°C° 0 mm 2 mps 700 mmHg 16%
    14:00 +26°C° 0 mm 2 mps 700 mmHg 18%
    15:00 +25°C° 0 mm 1 mps 700 mmHg 20%
    16:00 +24°C° 0 mm 1 mps 700 mmHg 22%
    17:00 +23°C° 0 mm 2 mps 700 mmHg 22%
    18:00 +21°C° 0 mm 3 mps 700 mmHg 23%
    19:00 +20°C° 0 mm 3 mps 700 mmHg 24%
    20:00 +20°C° 0 mm 3 mps 700 mmHg 24%
    21:00 +20°C° 0 mm 4 mps 700 mmHg 23%
    22:00 +20°C° 0 mm 4 mps 700 mmHg 23%
    23:00 +20°C° 0 mm 4 mps 700 mmHg 22%

    26 October, Friday

    Time Temperature Precipitation Wind Pressure Humidity
    00:00 +20°C° 0 mm 4 mps 699 mmHg 22%
    01:00 +20°C° 0 mm 4 mps 699 mmHg 22%
    02:00 +20°C° 0 mm 4 mps 699 mmHg 23%
    03:00 +20°C° 0 mm 4 mps 699 mmHg 23%
    04:00 +21°C° 0 mm 4 mps 699 mmHg 24%
    05:00 +21°C° 0 mm 4 mps 700 mmHg 26%
    06:00 +21°C° 0 mm 4 mps 700 mmHg 27%
    07:00 +21°C° 0 mm 4 mps 700 mmHg 29%
    08:00 +23°C° 0 mm 5 mps 700 mmHg 27%
    09:00 +26°C° 0 mm 5 mps 701 mmHg 24%
    10:00 +28°C° 0 mm 5 mps 701 mmHg 22%
    11:00 +29°C° 0 mm 5 mps 701 mmHg 22%
    12:00 +29°C° 0 mm 5 mps 700 mmHg 21%
    13:00 +29°C° 0 mm 5 mps 700 mmHg 21%
    14:00 +29°C° 0 mm 4 mps 700 mmHg 23%
    15:00 +28°C° 0 mm 4 mps 699 mmHg 24%
    16:00 +27°C° 0 mm 3 mps 699 mmHg 26%
    17:00 +26°C° 0 mm 4 mps 699 mmHg 26%
    18:00 +25°C° 0 mm 4 mps 699 mmHg 27%
    19:00 +23°C° 0 mm 5 mps 700 mmHg 28%
    20:00 +22°C° 0 mm 5 mps 700 mmHg 28%
    21:00 +22°C° 0 mm 5 mps 700 mmHg 27%
    22:00 +22°C° 0 mm 5 mps 700 mmHg 27%
    23:00 +22°C° 0 mm 5 mps 699 mmHg 27%

    27 October, Saturday

    Time Temperature Precipitation Wind Pressure Humidity
    00:00 +22°C° 0 mm 5 mps 699 mmHg 27%
    01:00 +22°C° 0 mm 5 mps 699 mmHg 27%
    02:00 +22°C° 0 mm 5 mps 699 mmHg 28%
    03:00 +22°C° 0 mm 5 mps 699 mmHg 28%
    04:00 +22°C° 0 mm 5 mps 699 mmHg 28%
    05:00 +22°C° 0 mm 5 mps 699 mmHg 28%
    06:00 +23°C° 0 mm 6 mps 699 mmHg 28%
    07:00 +23°C° 0 mm 6 mps 700 mmHg 28%
    08:00 +26°C° 0 mm 6 mps 700 mmHg 26%
    09:00 +28°C° 0 mm 6 mps 700 mmHg 24%
    10:00 +32°C° 0 mm 7 mps 701 mmHg 22%
    11:00 +32°C° 0 mm 7 mps 700 mmHg 22%
    12:00 +32°C° 0 mm 6 mps 700 mmHg 22%
    13:00 +32°C° 0 mm 6 mps 700 mmHg 22%
    14:00 +30°C° 0 mm 5 mps 701 mmHg 24%
    15:00 +28°C° 0 mm 4 mps 701 mmHg 27%
    16:00 +27°C° 0 mm 4 mps 701 mmHg 30%
    17:00 +25°C° 0.1 mm 3 mps 701 mmHg 38%
    18:00 +22°C° 0.1 mm 3 mps 702 mmHg 46%
    19:00 +21°C° 0.1 mm 3 mps 703 mmHg 54%
    20:00 +20°C° 0.6 mm 3 mps 703 mmHg 60%
    21:00 +19°C° 0.6 mm 2 mps 703 mmHg 66%
    22:00 +19°C° 0.6 mm 2 mps 704 mmHg 72%
    23:00 +18°C° 1.6 mm 3 mps 704 mmHg 75%

    28 October, Sunday

    Time Temperature Precipitation Wind Pressure Humidity
    00:00 +17°C° 1.6 mm 4 mps 704 mmHg 78%
    01:00 +17°C° 1.6 mm 4 mps 705 mmHg 81%
    02:00 +15°C° 2.3 mm 4 mps 705 mmHg 84%
    03:00 +14°C° 2.3 mm 3 mps 706 mmHg 86%
    04:00 +14°C° 2.3 mm 2 mps 707 mmHg 88%
    05:00 +14°C° 0.6 mm 2 mps 707 mmHg 86%
    06:00 +14°C° 0.6 mm 2 mps 708 mmHg 84%
    07:00 +14°C° 0.6 mm 2 mps 709 mmHg 81%
    08:00 +15°C° 0.1 mm 2 mps 709 mmHg 78%
    09:00 +15°C° 0.1 mm 2 mps 710 mmHg 75%
    10:00 +14°C° 0.1 mm 3 mps 710 mmHg 72%
    11:00 +14°C° 0 mm 3 mps 710 mmHg 68%
    12:00 +16°C° 0 mm 3 mps 710 mmHg 63%
    13:00 +16°C° 0 mm 3 mps 710 mmHg 59%
    14:00 +16°C° 0 mm 3 mps 710 mmHg 58%
    15:00 +16°C° 0 mm 3 mps 710 mmHg 57%
    16:00 +14°C° 0 mm 3 mps 710 mmHg 56%
    17:00 +14°C° 0 mm 3 mps 710 mmHg 57%
    18:00 +14°C° 0 mm 2 mps 710 mmHg 59%
    19:00 +14°C° 0 mm 2 mps 710 mmHg 61%
    20:00 +13°C° 0 mm 2 mps 710 mmHg 61%
    21:00 +13°C° 0 mm 2 mps 710 mmHg 62%
    22:00 +13°C° 0 mm 2 mps 710 mmHg 63%
    23:00 +13°C° 0 mm 2 mps 709 mmHg 63%
    Show more